Other Surface Observations
Issued by NWS Tucson, AZ

Home | Current Version | Previous Version | Text Only | Print | Product List | Glossary On
Versions: 1 2 3 4 5 6 7 8 9 10 11 12 13 14 15 16 17 18 19 20 21 22 23 24 25 26 27 28 29 30 31 32 33 34 35 36 37 38 39 40 41 42 43 44 45 46 47 48 49 50
000
SXUS55 KTWC 070515
OSOTWC

WEATHER ROUNDUP FOR SOUTHEAST ARIZONA
NATIONAL WEATHER SERVICE TUCSON AZ
1015 PM MST MON JUL 06 2015

AZZ504>506-514-070615-
LOCATION       SKY/WX    TMP DP  RH WIND       PRES   REMARKS
TUCSON         CLEAR     84  63  49 S5        30.00R
DAVIS-MONTHAN  CLEAR     81  64  57 S7        29.99R
CHILDRENS PARK N/A       86  63  47 NW2               PIMA CO DEQ
ALVERNON/22ND  N/A      N/A N/A N/A N/A               PIMA CO DEQ
CHERRY/GLENN   N/A      N/A N/A N/A N/A               PIMA CO DEQ
TANGERINE      N/A       83 N/A N/A NE4               PIMA CO DEQ
CONTL RANCH    N/A       86  62  44 N1                PIMA CO DEQ
GRANT/1ST      N/A       88  62  42 NW2               PIMA CO DEQ
CRAYCROFT/22ND N/A      N/A N/A N/A N/A               PIMA CO DEQ
GOLFLINKS/KOLB N/A      N/A N/A N/A N/A               PIMA CO DEQ
AJO/12TH       N/A       89  61  39 W2                PIMA CO DEQ
SAGUARO EAST   N/A      N/A N/A N/A N/A               PIMA CO DEQ
FAIRGROUNDS    N/A       84 N/A N/A W5                PIMA CO DEQ
SAGUARO        N/A       84  62  48 SE3               *SABINO CYN
SAN CARLOS     N/A       87  54  32 NW2G13            *SAN CARLOS
GREEN VALLEY   N/A       80  60  50 W5                PIMA CO DEQ
HORSE CAMP CYN N/A       80  57  45 W9G17             *ARAVAIPA CYN
RINCON MTNS    N/A       59  50  73 W3                *NR MANNING CAMP
$$

AZZ509>511-070615-
LOCATION       SKY/WX    TMP DP  RH WIND       PRES   REMARKS
SAFFORD        MOCLDY    84  60  44 NW10      29.97R
STRAY HORSE    N/A       65  48  55 NW7G13            *
TRAIL CABIN    N/A       70  54  56 W5                *N OF GRANVILLE
BLACK HILLS    N/A       86  57  37 NW9G18            *N OF FT THOMAS
DRY LAKE       N/A       65  52  63 W4                *NATANES MTNS
NOON CREEK     N/A       74  56  53 SW8G11            *PINALENO MTNS
COLUMBINE      N/A       53  48  82 CALM              *PINALENO MTNS
GUTHRIE        N/A       72  54  53 W19G27            *SW OF GUTHRIE
$$

AZZ502-503-513-070615-
LOCATION       SKY/WX    TMP DP  RH WIND       PRES   REMARKS
NOGALES        MOCLDY    72  66  81 E6        30.11R
SELLS          N/A       80  63  57 E4G10             *
SASABE         N/A       78  64  63 S4G13             *ALTAR VLY
HOPKINS        N/A       65  56  73 W8G13             *SANTA RITA MTNS
CARR CYN       N/A       66  59  79 SW2               *W OF HEREFORD
$$

AZZ507-508-512-070615-
LOCATION       SKY/WX    TMP DP  RH WIND       PRES   REMARKS
SIERRA VISTA   MOCLDY    72  62  69 W8        30.16R
DOUGLAS        CLEAR     70  64  81 NE6       30.10S
EMPIRE MTNS    N/A       68  61  77 W3                *LAS CIENEGAS NCA
MULESHOE RANCH N/A       78  57  48 NW6G17            *PRESERVE
HEADQUARTERS   N/A       71  59  66 S2                *CHIRICAHUA MTNS
$$

.............................NOTES.............................
THIS IS AN AUTOMATED COLLECTIVE WITH MINIMAL QUALITY CONTROL.
PIMA CO DEQ SITES HAVE NONSTANDARD WIND SENSOR HEIGHTS.
PIMA CO DEQ SITES DO NOT REPORT WIND GUSTS.
* INDICATES WIND SENSORS LOCATED AT 20 FEET INSTEAD OF 33 FEET.
..............................KEY..............................
SKY/WX - SKY CONDITION/WEATHER
TMP    - TEMPERATURE IN FAHRENHEIT
DP     - DEWPOINT IN FAHRENHEIT
RH     - RELATIVE HUMIDITY IN PERCENT
WIND   - DIRECTION AND SPEED IN MILES PER HOUR (MPH)
VRB    - VARIABLE WIND DIRECTION
PRES   - MEAN SEA LEVEL PRESSURE IN INCHES OF MERCURY
         F - FALLING PRESSURE   R - RISING PRESSURE
         S - STEADY PRESSURE
VSB    - VISIBILITY IN MILES
HX     - HEAT INDEX IN FAHRENHEIT
WCI    - WIND CHILL INDEX IN FAHRENHEIT
N/A    - NOT AVAILABLE
AFB    - AIR FORCE BASE
         DAVIS-MONTHAN IS DAVIS-MONTHAN AIR FORCE BASE
CYN    - CANYON
MTNS   - MOUNTAINS
NCA    - NATIONAL CONSERVATION AREA
NR     - NEAR
VLY    - VALLEY
CONTL  - CONTINENTAL
PIMA CO DEQ - PIMA COUNTY DEPT OF ENVIRONMENTAL QUALITY



USA.gov is the U.S. government's official web portal to all federal, state and local government web resources and services.